Wind_Speed
18 18 16 16 17 17 20 23 20 18 15 19 19 14 15 13 12 13 9 9 8 7 6 7 8 2 9 6 10 9 13 22 24 24 27 16 27 26 22 20 22 23 24 24 27 28 26 22 22
23 20 20 21 22 22 23 21 20 19 19 20 19 15 12 12 12 12 10 9 9 8 8 10 12 8 6 7 6 2 6 19 22 23 25 24 23 28 24 20 16 18 18 16 19 21 24 23 23
25 24 25 25 26 27 27 24 28 23 19 18 18 16 13 15 13 11 14 12 11 10 12 10 12 13 2 3 6 5 3 13 16 21 20 15 22 22 25 21 20 13 13 14 15 21 21 21 20
28 27 28 29 28 29 30 30 26 20 20 19 19 14 14 17 17 15 15 13 10 9 9 6 10 15 7 8 7 6 7 15 15 21 17 12 13 16 20 19 19 18 7 10 11 13 15 17 15
31 30 30 31 32 30 28 27 20 19 20 21 20 20 21 22 20 19 15 12 8 8 6 3 8 14 12 8 5 9 10 11 18 14 9 9 8 11 12 18 16 18 17 5 6 6 6 8 10
30 30 30 32 30 26 24 22 23 21 20 20 17 19 23 24 23 19 13 10 9 9 8 7 9 9 12 6 5 11 4 15 14 11 11 4 9 11 12 14 13 16 17 16 5 2 4 6 4
28 28 26 30 27 25 23 22 19 17 14 15 19 21 25 25 25 22 17 13 11 9 10 13 12 12 11 4 5 10 6 18 14 6 9 10 10 4 5 11 8 12 13 17 16 11 1 1 1
22 21 27 25 23 22 22 18 16 13 15 17 20 24 22 22 21 21 20 18 16 13 17 15 12 12 15 11 11 7 10 15 16 5 9 13 11 9 6 5 5 8 11 10 16 16 11 4 3
18 16 20 25 22 22 21 18 17 14 17 17 23 23 24 24 24 24 24 22 23 22 22 22 17 17 20 16 15 7 11 13 7 6 2 6 8 6 7 9 10 9 10 9 13 14 13 11 6
13 6 11 18 22 19 16 14 16 18 20 21 24 27 32 28 32 31 26 25 26 26 27 27 25 21 20 24 17 13 16 13 7 7 4 7 7 5 5 7 10 8 10 10 10 10 12 11 8
12 6 26 23 15 13 11 11 15 19 24 28 30 34 37 39 37 33 34 36 34 32 32 31 34 29 23 23 24 18 19 13 9 6 7 6 3 3 4 5 8 5 5 5 9 12 10 7 7
12 12 13 15 15 14 12 16 20 24 27 31 32 39 43 40 40 44 41 40 34 31 36 35 36 35 27 26 27 21 21 16 13 10 3 3 1 2 0 4 8 6 6 6 8 9 9 8 6
14 16 17 16 15 14 15 15 16 24 28 28 37 40 42 37 33 30 25 29 26 27 31 35 39 36 30 28 28 21 21 16 19 11 6 5 4 2 4 1 5 7 8 9 10 9 8 6 6
16 20 19 19 17 17 14 16 21 25 26 32 35 40 33 33 33 27 21 21 25 27 30 35 41 37 32 31 29 24 21 13 19 11 9 7 6 4 4 3 5 9 12 13 10 8 5 4 7
20 20 20 20 18 14 14 16 22 22 24 27 39 30 28 17 9 4 12 23 26 27 31 40 43 40 37 35 27 26 19 15 17 16 8 9 8 5 2 1 3 10 16 22 16 7 3 2 5
20 16 22 24 22 14 14 16 20 14 23 30 31 22 19 16 13 9 18 23 27 30 38 45 35 44 41 33 28 24 18 17 21 23 4 12 10 8 2 2 2 6 12 20 21 12 4 3 3
15 5 20 20 17 14 11 14 10 13 19 29 28 17 20 14 16 17 18 23 27 34 46 44 40 40 38 33 26 23 15 13 18 16 11 10 14 9 4 3 5 7 12 17 21 18 5 3 4
23 32 24 20 19 15 11 12 9 10 16 25 21 14 15 19 25 21 23 26 32 40 44 41 37 32 34 32 27 23 18 16 16 14 12 8 9 10 4 4 2 7 12 16 16 18 11 4 2
22 20 23 20 20 15 12 9 6 7 11 21 18 12 18 23 28 16 26 29 33 36 33 34 28 24 30 26 24 24 16 19 18 15 17 15 10 10 9 11 13 10 9 12 13 14 15 9 3
23 18 18 17 18 14 10 10 4 6 6 12 21 10 16 22 23 27 26 29 31 32 33 30 25 26 26 26 21 14 11 12 17 17 18 20 20 15 14 13 14 15 14 13 15 15 13 11 7
15 23 17 16 15 14 12 11 2 5 5 7 15 16 14 16 14 19 24 26 30 26 29 29 25 27 28 27 20 12 14 15 16 14 13 16 20 22 23 20 15 14 16 17 15 16 16 10 10
27 23 22 14 8 16 10 9 9 9 2 6 10 18 12 10 11 11 19 21 24 29 26 23 27 25 28 29 22 16 16 20 19 18 16 18 24 25 27 24 21 20 20 17 17 17 16 12 10
27 18 17 17 19 22 22 22 15 12 9 3 3 11 16 8 10 12 14 16 14 25 27 25 24 23 24 25 25 17 19 15 16 18 15 17 19 20 23 25 22 22 20 19 21 22 17 13 14
23 11 10 23 24 23 22 11 12 17 13 7 3 5 10 12 9 12 13 13 18 20 27 27 21 21 21 25 22 21 21 15 16 16 15 19 22 25 27 28 28 28 26 24 23 22 17 17 17
26 18 9 14 25 25 24 25 21 21 16 12 11 1 5 6 5 9 9 10 13 17 26 25 19 23 21 22 20 15 17 15 17 18 22 25 27 30 32 33 33 32 30 28 28 24 25 23 19
28 33 28 15 31 35 26 24 25 25 21 14 10 7 4 3 1 5 11 12 14 14 20 25 19 17 16 16 18 19 17 16 19 21 25 28 32 34 35 38 40 39 39 36 31 28 26 23 21
25 30 40 36 28 31 30 31 32 30 23 19 11 10 10 9 4 6 9 13 15 15 17 20 17 19 17 18 20 20 21 24 22 18 17 18 21 24 26 27 28 28 27 27 24 19 15 19 20
29 30 33 37 30 23 35 32 34 33 26 18 15 11 16 13 9 5 13 12 9 8 9 8 7 8 11 13 16 18 18 17 17 19 17 16 15 17 19 16 12 6 4 6 8 7 10 13 16
43 41 35 43 45 39 32 23 34 36 31 27 19 18 13 18 14 9 15 16 12 9 9 11 11 12 12 9 10 13 16 18 18 18 20 20 19 17 14 9 6 4 11 5 6 12 13 14 14
48 51 38 50 39 38 31 14 33 39 31 27 23 19 14 21 19 13 12 14 15 18 20 18 13 14 15 14 15 14 17 20 22 22 23 22 21 19 18 11 6 14 12 11 14 18 17 18 18
Wind_Direction
247 260 259 271 285 285 289 302 301 315 311 310 311 315 318 317 311 302 286 271 261 228 224 243 302 24 16 5 34 72 70 59 53 51 59 52 41 48 58 66 71 79 90 87 86 80 83 96 94
259 258 267 269 274 279 288 296 297 303 301 305 308 310 320 316 317 314 310 292 265 253 247 231 238 254 312 330 13 115 92 62 52 54 49 41 35 39 51 52 63 76 83 77 83 80 83 90 95
254 256 262 268 275 275 284 281 291 298 302 303 304 303 299 306 311 296 304 300 281 274 272 252 233 223 221 286 9 260 199 77 58 53 51 37 25 22 37 43 51 70 74 79 77 87 82 83 92
257 262 265 270 277 280 281 282 290 294 297 295 295 301 294 296 295 292 297 292 304 274 270 260 227 200 205 223 19 196 118 69 80 51 47 57 39 3 44 34 37 48 67 63 77 87 84 71 77
258 262 265 268 275 278 279 281 284 289 288 291 294 299 303 301 287 287 284 277 282 255 258 221 192 193 200 213 83 122 120 126 94 94 78 48 61 26 12 36 46 40 50 68 76 62 73 72 70
257 262 265 270 271 270 274 277 282 287 288 290 297 305 303 300 288 283 277 266 271 248 237 196 174 191 203 202 148 144 119 100 89 88 90 349 44 36 35 23 44 52 52 57 75 68 74 73 59
259 262 263 265 272 273 275 278 288 287 294 291 301 301 302 300 294 280 264 255 238 231 224 218 186 200 193 172 227 141 58 93 79 78 90 72 60 16 11 11 24 62 58 48 52 53 332 181 125
266 269 262 268 277 280 280 278 289 288 286 295 302 306 307 303 297 281 263 248 236 238 202 214 226 201 185 189 213 156 145 126 122 119 67 55 57 57 6 28 45 103 68 71 60 53 48 62 194
268 281 291 274 276 275 277 277 282 277 284 289 305 301 307 305 299 278 258 248 244 237 226 213 220 224 203 194 200 201 152 135 139 166 49 5 41 76 75 51 38 46 71 68 64 61 54 50 59
273 292 227 271 273 272 277 280 279 284 291 290 297 300 303 298 298 279 266 255 243 228 226 217 220 219 207 202 190 184 174 170 186 179 267 347 3 82 108 56 47 60 40 41 53 60 67 46 40
279 220 235 273 277 278 287 284 281 290 289 295 304 310 307 297 294 277 268 260 253 240 223 218 217 214 212 200 193 202 189 142 183 221 270 345 32 90 107 49 28 38 67 341 12 30 29 45 34
278 259 250 265 278 283 291 285 279 288 303 305 316 312 305 297 285 280 265 254 247 235 220 222 209 206 208 194 191 208 198 178 185 209 302 169 216 299 185 11 27 30 352 310 302 317 344 12 18
289 252 253 255 266 273 295 298 301 307 317 319 318 313 308 299 296 286 263 243 229 222 209 203 196 192 197 192 189 204 190 200 183 194 202 155 70 53 99 305 31 12 350 338 333 340 308 340 11
246 255 246 254 256 273 289 302 317 321 321 323 316 318 315 310 297 277 253 224 206 201 192 187 181 178 190 186 186 191 195 203 162 170 194 159 143 130 84 86 19 11 20 2 341 348 318 315 353
251 245 236 246 253 274 283 300 321 326 331 327 324 327 325 316 313 244 197 181 181 179 175 172 165 175 175 188 180 189 195 208 171 168 200 186 165 154 330 305 28 48 27 25 11 350 325 72 344
253 262 232 241 251 254 270 301 323 329 338 341 331 339 346 358 52 104 151 158 162 161 157 153 159 185 181 182 180 189 197 206 185 198 166 195 180 155 176 324 90 32 5 12 18 3 328 67 26
222 59 241 237 246 250 273 308 322 334 344 347 341 11 3 29 70 93 130 143 150 153 152 154 174 181 183 184 182 180 186 199 201 222 199 184 179 175 146 274 282 354 360 6 13 15 346 50 38
225 216 240 230 245 254 271 311 343 358 345 352 349 39 30 58 78 95 118 128 140 148 151 169 174 184 186 187 178 183 197 211 213 218 217 216 208 197 237 186 246 309 338 341 11 12 6 282 44
247 235 231 234 244 251 269 296 329 356 354 16 8 67 69 88 99 88 120 131 135 144 154 161 168 175 175 180 186 196 199 203 207 220 234 221 232 247 264 249 279 295 312 327 348 4 357 334 273
259 250 225 237 246 259 289 278 340 335 334 6 14 53 98 82 91 104 122 129 132 150 149 160 168 183 181 181 178 179 169 195 214 214 226 240 240 239 250 256 268 278 294 306 318 333 350 341 293
277 252 228 197 243 254 261 287 281 272 294 355 13 38 120 103 89 107 128 142 155 154 157 174 161 181 189 186 200 210 203 195 198 197 220 242 244 240 246 248 252 262 281 293 306 319 328 311 324
211 241 227 222 203 272 229 251 249 243 181 54 25 50 59 139 135 124 139 144 165 163 167 181 186 191 197 207 210 200 192 203 219 224 232 244 239 239 245 249 257 262 273 285 293 309 317 306 299
235 231 212 213 220 221 210 222 241 216 184 165 20 33 53 96 147 144 154 175 181 185 181 181 190 181 194 200 203 213 207 211 224 236 239 242 252 251 250 255 254 258 266 278 287 292 298 307 274
222 205 206 208 207 226 213 217 255 208 206 173 130 72 26 50 138 137 144 165 178 186 186 185 180 198 193 202 211 217 217 219 219 243 256 259 258 257 256 257 261 263 263 266 277 281 287 287 275
213 160 287 228 199 218 204 186 241 220 206 183 173 163 332 9 145 167 155 149 155 178 187 192 192 183 196 212 224 230 235 246 246 261 276 268 259 258 258 257 256 258 262 264 263 265 272 280 270
203 181 144 230 222 221 214 223 240 230 210 213 214 226 214 289 99 171 188 176 170 176 183 193 202 199 200 223 233 236 238 250 264 267 272 267 265 263 262 263 262 263 264 267 263 261 263 261 252
200 209 197 203 215 224 226 234 228 229 224 230 234 234 209 199 248 169 164 184 179 182 188 196 206 211 233 232 233 240 249 256 259 258 263 272 276 273 273 273 273 272 268 260 258 256 257 248 242
179 193 205 205 216 212 227 230 232 232 229 222 234 243 216 212 222 225 178 155 156 162 175 194 213 236 244 247 238 244 243 239 251 262 269 280 286 293 292 286 287 295 282 252 245 251 250 245 250
197 203 199 205 213 210 223 238 236 234 230 230 242 237 246 222 212 214 221 227 208 218 222 227 239 247 246 254 245 257 250 250 264 266 276 288 297 307 289 243 128 12 312 283 287 272 282 280 251
195 200 202 218 208 220 212 283 238 225 226 234 245 236 253 220 223 237 261 232 233 240 250 250 230 240 243 243 248 254 256 262 264 265 269 274 284 283 276 242 240 285 276 281 293 290 273 259 249
Height
11027 11026 11027 11027 11027 11027 11026 11026 11024 11023 11021 11020 11019 11018 11017 11017 11016 11015 11014 11014 11013 11013 11013 11013 11011 11012 11009 11009 11009 11008 11006 11003 11001 11000 10998 10995 10992 10989 10987 10986 10985 10985 10983 10981 10980 10978 10978 10977 10976
11025 11026 11026 11025 11026 11025 11025 11023 11022 11021 11019 11018 11017 11016 11015 11015 11014 11013 11013 11012 11011 11011 11012 11012 11012 11011 11011 11010 11010 11009 11007 11006 11005 11003 11001 10999 10996 10994 10992 10991 10990 10989 10988 10987 10985 10984 10983 10981 10980
11022 11023 11024 11023 11023 11023 11022 11020 11019 11018 11017 11016 11015 11013 11012 11012 11012 11011 11010 11011 11010 11010 11009 11009 11010 11011 11012 11011 11011 11009 11008 11009 11008 11006 11004 11004 11000 10998 10997 10996 10994 10992 10992 10992 10990 10988 10988 10986 10984
11020 11021 11021 11021 11021 11020 11019 11018 11017 11015 11014 11013 11012 11010 11009 11008 11008 11008 11007 11007 11007 11008 11007 11007 11008 11009 11010 11010 11011 11010 11010 11010 11010 11008 11008 11007 11005 11004 11001 10999 10998 10997 10995 10995 10995 10993 10992 10990 10989
11019 11019 11019 11018 11018 11018 11017 11015 11013 11013 11012 11010 11009 11007 11006 11005 11003 11003 11003 11003 11004 11005 11006 11005 11006 11008 11009 11010 11010 11011 11011 11012 11010 11011 11010 11008 11007 11006 11004 11003 11002 11000 10998 10997 10997 10996 10995 10994 10993
11015 11016 11017 11015 11015 11014 11013 11012 11011 11010 11008 11007 11005 11004 11003 11000 10999 10999 10999 11000 11001 11002 11004 11004 11005 11007 11008 11010 11011 11012 11011 11012 11012 11013 11012 11010 11010 11008 11006 11005 11004 11003 11001 10999 10998 10998 10997 10997 10996
11013 11013 11013 11010 11011 11012 11010 11009 11007 11005 11004 11003 11002 11000 10999 10997 10995 10994 10995 10996 10997 10999 11001 11003 11005 11007 11008 11009 11010 11013 11011 11013 11014 11014 11013 11012 11011 11010 11008 11007 11007 11006 11004 11002 11000 10999 10998 10998 10997
11010 11010 11009 11007 11008 11009 11007 11005 11003 11002 11001 10999 10997 10996 10994 10993 10991 10990 10990 10992 10994 10996 10997 10999 11002 11005 11008 11009 11010 11012 11014 11013 11015 11015 11015 11013 11012 11011 11011 11011 11009 11007 11005 11004 11003 11001 11000 10999 10999
11006 11008 11008 11005 11005 11005 11003 11002 11000 10999 10998 10995 10993 10990 10989 10987 10986 10985 10985 10986 10988 10990 10993 10996 10999 11003 11006 11007 11010 11012 11013 11014 11015 11015 11016 11015 11014 11014 11013 11012 11010 11009 11008 11007 11004 11002 11001 11000 10999
11003 11009 11012 11001 11002 11003 11000 10999 10998 10997 10994 10992 10989 10985 10982 10980 10979 10978 10977 10978 10980 10983 10987 10991 10995 10998 11003 11006 11009 11010 11011 11013 11015 11015 11016 11015 11015 11015 11015 11014 11012 11011 11010 11008 11007 11004 11002 11001 11000
11000 11004 11002 11000 11001 11000 10998 10997 10996 10994 10991 10987 10983 10979 10975 10972 10968 10967 10965 10966 10969 10974 10978 10984 10989 10993 10999 11003 11006 11008 11010 11015 11015 11016 11017 11016 11016 11016 11015 11014 11013 11012 11011 11009 11009 11007 11005 11003 11002
11000 10997 10998 10998 10999 10998 10997 10995 10993 10990 10987 10982 10977 10971 10965 10957 10953 10951 10950 10951 10955 10960 10967 10974 10981 10989 10995 11000 11004 11006 11009 11013 11015 11017 11017 11016 11015 11015 11015 11015 11015 11013 11012 11011 11010 11008 11007 11005 11003
10996 10997 10997 10997 10996 10994 10993 10990 10989 10986 10982 10976 10970 10963 10953 10943 10937 10933 10934 10937 10943 10949 10956 10964 10973 10985 10992 10998 11002 11005 11009 11011 11015 11016 11017 11017 11017 11017 11015 11016 11016 11013 11012 11011 11009 11007 11006 11005 11004
10982 10991 10993 10993 10991 10990 10988 10986 10985 10982 10978 10972 10964 10954 10943 10934 10925 10920 10923 10927 10934 10942 10950 10959 10970 10982 10990 10996 11001 11004 11008 11011 11014 11017 11018 11018 11018 11017 11016 11016 11015 11013 11012 11010 11007 11005 11004 11003 11003
10985 10986 10988 10988 10987 10987 10985 10985 10983 10979 10975 10969 10959 10948 10939 10929 10919 10916 10918 10924 10931 10939 10947 10957 10970 10981 10989 10995 11001 11004 11007 11009 11013 11016 11017 11017 11017 11018 11017 11016 11015 11014 11013 11010 11007 11004 11004 11003 11003
10983 10984 10984 10984 10984 10984 10984 10983 10981 10978 10973 10967 10956 10948 10938 10930 10921 10919 10921 10927 10933 10940 10950 10960 10972 10978 10987 10994 10999 11003 11007 11009 11012 11012 11015 11015 11017 11017 11019 11018 11016 11014 11012 11011 11008 11005 11004 11003 11003
10982 10982 10978 10982 10982 10982 10983 10982 10980 10976 10972 10966 10957 10949 10943 10934 10928 10925 10928 10931 10937 10945 10953 10965 10971 10980 10988 10994 11000 11004 11007 11009 11011 11012 11014 11014 11015 11016 11015 11017 11017 11015 11013 11011 11008 11007 11006 11005 11004
10973 10974 10976 10979 10980 10982 10983 10982 10978 10975 10972 10967 10958 10953 10948 10941 10936 10935 10937 10939 10943 10951 10960 10969 10977 10984 10990 10995 11000 11004 11006 11008 11009 11011 11013 11014 11014 11015 11015 11016 11017 11015 11013 11012 11009 11007 11006 11006 11005
10971 10973 10976 10977 10979 10982 10984 10982 10978 10976 10973 10969 10962 10957 10955 10948 10947 10945 10946 10950 10954 10961 10969 10976 10981 10986 10990 10995 11000 11002 11003 11005 11008 11009 11010 11013 11013 11014 11014 11014 11014 11014 11011 11011 11010 11008 11007 11006 11005
10971 10974 10974 10975 10978 10984 10985 10983 10979 10976 10973 10970 10967 10961 10959 10957 10955 10952 10956 10959 10964 10968 10972 10979 10985 10988 10992 10996 10999 11001 11002 11004 11006 11008 11009 11011 11012 11012 11012 11012 11012 11012 11011 11010 11009 11008 11007 11006 11005
10968 10968 10974 10975 10978 10981 10983 10983 10979 10977 10973 10971 10969 10965 10963 10962 10962 10962 10961 10964 10968 10970 10973 10978 10982 10988 10992 10996 10998 11000 11001 11004 11006 11007 11008 11009 11009 11008 11009 11009 11009 11009 11009 11008 11008 11007 11006 11005 11004
10944 10960 10972 10977 10979 10977 10980 10978 10979 10977 10974 10972 10971 10967 10965 10965 10965 10966 10969 10971 10973 10974 10977 10979 10983 10987 10990 10993 10996 10999 10999 11002 11003 11005 11006 11006 11005 11005 11006 11006 11006 11006 11006 11006 11006 11005 11004 11004 11003
10953 10961 10969 10975 10973 10976 10974 10977 10978 10977 10973 10972 10972 10971 10968 10967 10968 10968 10969 10971 10974 10976 10978 10981 10984 10987 10989 10992 10995 10998 10998 10999 11001 11003 11004 11004 11003 11003 11003 11003 11002 11002 11002 11002 11001 11001 11001 11001 11000
10952 10961 10968 10971 10973 10976 10976 10981 10976 10976 10973 10972 10972 10972 10971 10970 10970 10971 10971 10971 10973 10975 10978 10980 10985 10987 10989 10992 10994 10995 10997 10998 11000 11002 11003 11001 11001 11000 10999 10998 10998 10997 10996 10996 10996 10996 10996 10996 10995
10952 10961 10968 10973 10972 10972 10972 10975 10969 10972 10972 10971 10971 10972 10973 10972 10971 10971 10971 10972 10973 10975 10977 10980 10983 10985 10988 10990 10992 10994 10996 10998 10999 11000 10999 10997 10996 10995 10993 10992 10990 10989 10989 10989 10989 10990 10990 10989 10989
10946 10957 10959 10963 10964 10960 10968 10967 10969 10969 10970 10970 10970 10971 10973 10972 10972 10972 10972 10973 10975 10977 10979 10980 10983 10986 10988 10989 10990 10992 10993 10995 10995 10994 10993 10992 10989 10987 10986 10985 10984 10984 10983 10984 10984 10983 10983 10982 10982
10940 10944 10950 10951 10954 10960 10963 10962 10965 10966 10968 10967 10969 10970 10971 10972 10972 10973 10973 10974 10976 10978 10980 10982 10984 10985 10986 10987 10988 10989 10990 10990 10990 10988 10988 10986 10983 10981 10980 10978 10977 10976 10976 10975 10977 10978 10979 10978 10978
10929 10938 10942 10952 10952 10958 10955 10958 10959 10962 10965 10965 10966 10967 10969 10969 10971 10972 10973 10974 10976 10978 10979 10981 10982 10983 10983 10984 10984 10984 10984 10985 10985 10985 10984 10982 10979 10976 10974 10973 10972 10973 10973 10973 10974 10974 10973 10972 10974
10927 10932 10940 10941 10943 10948 10951 10958 10958 10957 10958 10961 10962 10964 10966 10967 10968 10970 10972 10973 10974 10975 10976 10978 10979 10980 10981 10981 10981 10981 10981 10981 10980 10979 10978 10976 10974 10971 10970 10969 10970 10972 10970 10969 10969 10969 10970 10970 10969
10922 10927 10923 10936 10942 10944 10951 10951 10945 10952 10954 10956 10959 10961 10962 10963 10965 10967 10968 10970 10972 10972 10973 10974 10975 10976 10976 10976 10976 10976 10975 10974 10974 10973 10972 10970 10969 10967 10967 10967 10967 10965 10965 10963 10962 10963 10962 10962 10962